Weather History for Guymon, OK

Change the Weather History Date:

Thursday, August 28, 2014

  Actual Average Record
Temperature  
Mean Temperature 77 °F 77 °F  
Max Temperature 90 °F 90 °F 104 °F (2011)
Min Temperature 64 °F 63 °F 57 °F (2001)
Degree Days  
Heating Degree Days 0 0  
Month to date heating degree days 0 0  
Since 1 June heating degree days 9 8  
Since 1 July heating degree days 4 0  
Cooling Degree Days 12 12  
Month to date cooling degree days 451 372  
Year to date cooling degree days 1404 1214  
Since 1 June cooling degree days 1226 1106  
Growing Degree Days 26 (Base 50)    
Moisture  
Dew Point 58 °F    
Average Humidity 57    
Maximum Humidity 87    
Minimum Humidity 27    
Precipitation  
Precipitation 0.00 in 0.10 in 0.80 in (2002)
Month to date precipitation 0.73 2.63  
Year to date precipitation 8.44 14.48  
Snow  
Snow 0.00 in - - ()
Month to date snowfall 0.0  
Since 1 June snowfall 0.0  
Since 1 July snowfall 0.0  
Snow Depth 0.00 in    
Sea Level Pressure  
Sea Level Pressure 29.83 in    
Wind  
Wind Speed 10 mph (WNW)    
Max Wind Speed 20 mph    
Max Gust Speed 24 mph    
Visibility 10 miles    
Events      
T = Trace of Precipitation, MM = Missing Value Source: NWS Daily Summary

Daily Weather History Graph

Daily Weather History Graph

Search for Another Location

Airport:

Trip Planner

Search our weather history database for the weather conditions in past years. The results will help you decide how hot, cold, wet, or windy it might be!

Date:

Astronomy

Aug. 28, 2014 Rise Set
Actual Time 7:13 AM CDT 8:19 PM CDT
Civil Twilight 6:47 AM CDT 8:46 PM CDT
Nautical Twilight 6:15 AM CDT 9:18 PM CDT
Astronomical Twilight 5:42 AM CDT 9:50 PM CDT
Moon 10:02 AM CDT (8/28) 9:51 PM CDT (8/28)
Length of Visible Light 13h 59m
Length of Day
13h 05m
Waxing Crescent, 9% of the Moon is Illuminated
Aug 28
Waxing Crescent
Sep 2
First Quarter
Sep 8
Full
Sep 15
Last Quarter
Sep 24
New

Hourly Weather History & Observations

Time (CDT) Temp. Heat Index Dew Point Humidity Pressure Visibility Wind Dir Wind Speed Gust Speed Precip Events Conditions
12:53 AM 71.1 °F - 64.0 °F 78% 29.85 in 10.0 mi South 15.0 mph - N/A   Clear
1:53 AM 70.0 °F - 64.0 °F 81% 29.85 in 10.0 mi South 12.7 mph - N/A   Clear
2:53 AM 71.1 °F - 64.0 °F 78% 29.82 in 10.0 mi South 16.1 mph - N/A   Clear
3:53 AM 71.1 °F - 64.0 °F 78% 29.81 in 10.0 mi South 17.3 mph - N/A   Clear
4:53 AM 69.1 °F - 62.1 °F 78% 29.82 in 10.0 mi SW 15.0 mph - N/A   Clear
5:53 AM 66.9 °F - 60.1 °F 79% 29.85 in 10.0 mi SW 11.5 mph - N/A   Clear
6:53 AM 64.0 °F - 59.0 °F 84% 29.86 in 10.0 mi WSW 6.9 mph - N/A   Clear
7:53 AM 64.0 °F - 60.1 °F 87% 29.87 in 10.0 mi West 9.2 mph - N/A   Clear
8:53 AM 70.0 °F - 60.1 °F 71% 29.87 in 10.0 mi WNW 15.0 mph - N/A   Clear
10:53 AM 73.9 °F - 60.1 °F 62% 29.88 in 10.0 mi NW 15.0 mph - N/A   Clear
11:53 AM 79.0 °F - 59.0 °F 50% 29.86 in 10.0 mi NNW 9.2 mph - N/A   Clear
12:53 PM 82.0 °F 82.0 °F 57.9 °F 44% 29.85 in 10.0 mi Variable 6.9 mph - N/A   Clear
1:53 PM 84.9 °F 83.9 °F 57.0 °F 38% 29.83 in 10.0 mi Variable 4.6 mph - N/A   Clear
2:53 PM 87.1 °F 85.3 °F 55.0 °F 33% 29.81 in 10.0 mi NNW 8.1 mph - N/A   Clear
3:53 PM 88.0 °F 85.7 °F 53.1 °F 30% 29.78 in 10.0 mi NE 8.1 mph - N/A   Scattered Clouds
4:53 PM 89.1 °F - 52.0 °F 28% 29.77 in 10.0 mi NE 6.9 mph 16.1 mph N/A   Scattered Clouds
5:53 PM 87.1 °F - 51.1 °F 29% 29.77 in 10.0 mi NNW 8.1 mph - N/A   Partly Cloudy
6:53 PM 84.9 °F - 51.1 °F 31% 29.78 in 10.0 mi NNE 5.8 mph - N/A   Partly Cloudy
7:53 PM 82.9 °F - 50.0 °F 32% 29.80 in 10.0 mi Calm Calm - N/A   Scattered Clouds
8:53 PM 77.0 °F - 51.1 °F 40% 29.80 in 10.0 mi West 8.1 mph - N/A   Clear
9:53 PM 75.9 °F - 50.0 °F 40% 29.82 in 10.0 mi NNW 8.1 mph - N/A   Clear
10:53 PM 71.1 °F - 57.9 °F 63% 29.86 in 10.0 mi North 10.4 mph - N/A   Clear
11:53 PM 69.1 °F - 60.1 °F 73% 29.87 in 10.0 mi NNE 8.1 mph - N/A   Clear